Regional Weather Roundup
Issued by NWS Little Rock, AR

Home | Current Version | Previous Version | Text Only | Print | Product List | Glossary Off
Versions: 1 2 3 4 5 6 7 8 9 10 11 12 13 14 15 16 17 18 19 20 21 22 23 24 25 26 27 28 29 30 31 32 33 34 35 36 37 38 39 40 41 42 43 44 45 46 47 48 49 50

209
ASUS44 KLZK 220012
RWRLZK

WEATHER ROUNDUP FOR ARKANSAS
NATIONAL WEATHER SERVICE LITTLE ROCK AR
600 PM CST TUE FEB 21 2017

NOTE: "FAIR" INDICATES FEW OR NO CLOUDS BELOW 12,000 FEET WITH NO
SIGNIFICANT WEATHER AND/OR OBSTRUCTIONS TO VISIBILITY.

ARZ001-003-010-029-220100-
NORTHWEST ARKANSAS

CITY           SKY/WX    TMP DP  RH WIND       PRES   REMARKS
FAYETTEVILLE   CLOUDY    62  55  77 NE5       29.89R
6HR MIN TEMP:  60; 6HR MAX TEMP:  66;

FORT SMITH     CLOUDY    67  55  65 E8        29.87R
6HR MIN TEMP:  63; 6HR MAX TEMP:  74;

HARRISON       CLOUDY    58  57  97 E7        29.90S
6HR MIN TEMP:  57; 6HR MAX TEMP:  59; 6HR PCP:  0.02;

BENTONVILLE    CLOUDY    64  54  68 NE7       29.91R
6HR MIN TEMP:  63; 6HR MAX TEMP:  70; 6HR PCP:  0.01;

ROGERS         CLOUDY    63  55  75 NE8       29.91R
6HR MIN TEMP:  61; 6HR MAX TEMP:  67;

SILOAM SPGS    CLOUDY    64  52  63 N8        29.90R
6HR MIN TEMP:  57; 6HR MAX TEMP:  70;

SPRINGDALE     CLOUDY    63  55  77 NE8       29.91R
$$

ARZ004-005-016-220100-
NORTH CENTRAL ARKANSAS

CITY           SKY/WX    TMP DP  RH WIND       PRES   REMARKS
BATESVILLE     CLOUDY    59  57  94 CALM      29.88R
6HR MIN TEMP:  59; 6HR MAX TEMP:  59; 6HR PCP:  0.06;

FLIPPIN        CLOUDY    59  54  82 E5        29.88R
6HR MIN TEMP:  59; 6HR MAX TEMP:  61;

MTN HOME       CLOUDY    57  56  96 E3        29.89R
6HR MIN TEMP:  57; 6HR MAX TEMP:  60; 6HR PCP:  0.05;

$$

ARZ040-041-220100-
WEST CENTRAL ARKANSAS

CITY           SKY/WX    TMP DP  RH WIND       PRES   REMARKS
MENA           CLOUDY    64  61  88 CALM      29.89R
MOUNT IDA      CLOUDY    60  58  92 CALM      29.84F
6HR MIN TEMP:  60; 6HR MAX TEMP:  62; 6HR PCP:  0.08;

$$

ARZ009-017-025-026-028-220100-
NORTHEAST ARKANSAS

CITY           SKY/WX    TMP DP  RH WIND       PRES   REMARKS
CORNING        CLOUDY    63  63 100 E7        29.89R
JONESBORO      CLOUDY    63  59  87 CALM      29.86R
6HR MIN TEMP:  63; 6HR MAX TEMP:  67; 6HR PCP: TRACE;

NEWPORT        MOCLDY    62  60  93 N5        29.87R
6HR MIN TEMP:  59; 6HR MAX TEMP:  67;

WALNUT RIDGE   MOCLDY    63  57  82 NE6       29.88R
6HR MIN TEMP:  59; 6HR MAX TEMP:  66; 6HR PCP:  0.11;

BLYTHEVILLE    CLOUDY    62  60  93 E7        29.89R
6HR MIN TEMP:  62; 6HR MAX TEMP:  67;

$$

ARZ022-023-033-042-044-220100-
CENTRAL ARKANSAS

CITY           SKY/WX    TMP DP  RH WIND       PRES   REMARKS
LITTLE ROCK    LGT RAIN  60  60 100 N3        29.85R FOG
6HR MIN TEMP:  60; 6HR MAX TEMP:  62; 6HR PCP:  0.12;

N LITTLE ROCK    N/A     59  58  96 N5        29.86R
6HR MIN TEMP:  59; 6HR MAX TEMP:  61;

JACKSONVILLE   LGT RAIN  61  61 100 NW5       29.84R FOG
6HR MIN TEMP:  61; 6HR MAX TEMP:  63; 6HR PCP:  0.26;

SEARCY         CLOUDY    61  61 100 NW5       29.86F
6HR MIN TEMP:  61; 6HR MAX TEMP:  63; 6HR PCP:  0.06;

HOT SPRINGS    CLOUDY    60  59  96 NW3       29.86S
6HR MIN TEMP:  60; 6HR MAX TEMP:  61; 6HR PCP: TRACE;

RUSSELLVILLE   LGT RAIN  60  58  92 NW3       29.87R
6HR MIN TEMP:  60; 6HR MAX TEMP:  61; 6HR PCP:  0.03;

CLINTON        CLOUDY    59  59 100 CALM      29.88R FOG
$$

ARZ036-220100-
EAST ARKANSAS

CITY           SKY/WX    TMP DP  RH WIND       PRES   REMARKS
WEST MEMPHIS   CLOUDY    63  60  90 SE7       29.85R
6HR MIN TEMP:  62; 6HR MAX TEMP:  66; 6HR PCP: TRACE;

$$

ARZ050-053-066-070-073-220100-
SOUTHWEST ARKANSAS

CITY           SKY/WX    TMP DP  RH WIND       PRES   REMARKS
ARKADELPHIA    CLOUDY    60  59  96 NW8       29.86R
CAMDEN         CLOUDY    61  57  88 W5        29.85S
EL DORADO      LGT RAIN  59  59 100 NW3       29.86R FOG
6HR MIN TEMP:  59; 6HR MAX TEMP:  64; 6HR PCP:  0.09;

DE QUEEN       MOCLDY    66  55  67 N6        29.86R
6HR MIN TEMP:  63; 6HR MAX TEMP:  70;

$$

ARZ056-057-069-220100-
SOUTHEAST ARKANSAS

CITY           SKY/WX    TMP DP  RH WIND       PRES   REMARKS
PINE BLUFF     MOCLDY    60  59  96 SW5       29.84S
6HR MIN TEMP:  60; 6HR MAX TEMP:  66; 6HR PCP:  0.05;

STUTTGART      CLEAR     63  52  67 S5        29.85R
6HR MIN TEMP:  63; 6HR MAX TEMP:  64;

MONTICELLO     CLOUDY    61  58  90 SW3       29.85R
6HR MIN TEMP:  61; 6HR MAX TEMP:  66; 6HR PCP:  0.02;


$$






USA.gov is the U.S. government's official web portal to all federal, state and local government web resources and services.